Skip Page Navigation
NASA JPL Caltech
NASA Logo - Jet Propulsion Laboratory + View the NASA Portal
+ Center for Near-Earth Object Studies
JPL Home Earth Solar System Stars & Galaxies Technology
JPL Solar System Dynamics
BODIES ORBITS EPHEMERIDES TOOLS PHYSICAL DATA DISCOVERY FAQ SITE MAP
IMPORTANT: The SSD Announcement email list is now available. Major changes are coming in the near future, including possible hostname and/or URL changes. To be notified of such changes, subscribe to this email list.

Please visit this page for more details.


JPL Small-Body Database Browser
Search: [ help ]  
201700 (2003 UJ135)
Classification: Main-belt Asteroid          SPK-ID: 2201700
Ephemeris | Orbit Diagram | Orbital Elements | Mission Design | Physical Parameters | Discovery Circumstances ]

[ show orbit diagram ]
Orbital Elements at Epoch 2458600.5 (2019-Apr-27.0) TDB
Reference: JPL 10 (heliocentric ecliptic J2000)
 Element Value Uncertainty (1-sigma)   Units 
e .1007790785445304 1.1615e-07  
a 3.086152444100426 3.075e-08 au
q 2.775132844536034 3.6546e-07 au
i 12.0260435800985 7.8917e-06 deg
node 6.842054264367706 2.7002e-05 deg
peri 13.40200320362688 5.5308e-05 deg
M 323.7550085877658 4.0481e-05 deg
tp 2458799.874673595296
(2019-Nov-12.37467360)
0.00022277 TDB
period 1980.270368337834
5.42
2.9597e-05
8.103e-08
d
yr
n .1817933579959441 2.717e-09 deg/d
Q 3.397172043664817 3.3849e-08 au
  Orbit Determination Parameters
   # obs. used (total)      242  
   data-arc span      8979 days (24.58 yr)  
   first obs. used      1995-03-27  
   last obs. used      2019-10-26  
   planetary ephem.      DE431  
   SB-pert. ephem.      SB431-N16  
   condition code      0  
   norm. resid. RMS      .57184  
   source      ORB  
   producer      Otto Matic  
   solution date      2019-Nov-07 23:01:58  

Additional Information
 Earth MOID = 1.77746 au 
 Jupiter MOID = 2.0733 au 
 T_jup = 3.185 
[ show covariance matrix ]

Ephemeris | Orbit Diagram | Orbital Elements | Mission Design | Physical Parameters | Discovery Circumstances ]

Physical Parameter Table
Parameter Symbol Value Units Sigma Reference Notes
absolute magnitude H 15.7   n/a MPO320981  

201700 (2003 UJ135)          Discovered 2003-Oct-21 by NEAT at Palomar
Reference: 20081212/Numbers.arcLast Updated: 2008-12-12

Alternate Designations
 2003 UJ135 = 1995 FJ11 
Ephemeris | Orbit Diagram | Orbital Elements | Mission Design | Physical Parameters | Discovery Circumstances ]
ABOUT SSD CREDITS/AWARDS PRIVACY/COPYRIGHT GLOSSARY LINKS
FirstGov 2020-Jan-18 20:20 UT
(server date/time)  
NASA Home Page
Site Manager:   Ryan S. Park
Webmaster  Alan B. Chamberlin